Hourly Data Report for February 26, 2005

TORONTO CITY
ONTARIO

43°40'00.000" N
79°24'00.000" W
112.50 m
6158355
71508
XTO

Download Data

Hourly Data (February 2005)
Hourly Data Report for February 26, 2005
TIME
LST
Temp Definition
°C
Dew Point Definition
°C
Rel Hum Definition
%
Precip. Amount Definition
mm

Wind Dir Definition
10's deg

Wind Spd Definition
km/h
Visibility Definition
km
Stn Press Definition
kPa
Hmdx Definition


Wind Chill Definition


Weather Definition


00:00 -2.7 -3.1 97   LegendMM LegendMM   100.31     LegendNANA
01:00 -2.8 -3.3 96   LegendMM LegendMM   100.27     LegendNANA
02:00 -2.4 -2.9 96   LegendMM LegendMM   100.24     LegendNANA
03:00 -2.7 -3.4 95   LegendMM LegendMM   100.23     LegendNANA
04:00 -3.9 -4.6 95   LegendMM LegendMM   100.27     LegendNANA
05:00 -4.8 -5.7 93   LegendMM LegendMM   100.35     LegendNANA
06:00 -5.2 -6.8 88   LegendMM LegendMM   100.42     LegendNANA
07:00 -5.6 -7.6 86   LegendMM LegendMM   100.51     LegendNANA
08:00 -4.8 -7.1 84   LegendMM LegendMM   100.59     LegendNANA
09:00 -2.9 -6.7 75   LegendMM LegendMM   100.65     LegendNANA
10:00 -2.3 -7.2 69   LegendMM LegendMM   100.67     LegendNANA
11:00 -2.8 -6.6 75   LegendMM LegendMM   100.74     LegendNANA
12:00 -2.8 -9.7 59   LegendMM LegendMM   100.79     LegendNANA
13:00 -1.7 -10.1 53   LegendMM LegendMM   100.80     LegendNANA
14:00 -2.5 -10.4 55   LegendMM LegendMM   100.83     LegendNANA
15:00 -3.6 -11.6 54   LegendMM LegendMM   100.90     LegendNANA
16:00 -4.2 -12.1 54   LegendMM LegendMM   100.99     LegendNANA
17:00 -5.4 -12.0 60   LegendMM LegendMM   101.08     LegendNANA
18:00 -6.2 -12.4 61   LegendMM LegendMM   101.22     LegendNANA
19:00 -6.9 -12.8 63   LegendMM LegendMM   101.28     LegendNANA
20:00 -7.3 -13.5 61   LegendMM LegendMM   101.33     LegendNANA
21:00 -7.7 -14.3 59   LegendMM LegendMM   101.37     LegendNANA
22:00 -8.3 -13.5 66   LegendMM LegendMM   101.38     LegendNANA
23:00 -8.8 -13.3 70   LegendMM LegendMM   101.38     LegendNANA

Notes on Data Quality.

Legend

  • E = Estimated
  • M = Missing
  • NA = Not Available*
  • [empty] = Indicates an unobserved value
Date modified: